{"data":{"norad_id":65263,"intl_designator":"2025-180E","name":"2025-180E","alt_names":[],"object_type":"PAYLOAD","status":"ACTIVE","operator":null,"country":"TBD","launch_date":"2025-08-19","launch_site_code":"JSC","launch_vehicle":null,"mission":null,"orbit_class":"UNKNOWN","rcs_meters":null,"size_class":null,"mass_kg":null,"dimensions":null,"purposes":[],"wikipedia_slug":null,"has_3d_model":false,"image_url":null,"decayed_at":null,"tle_current":{"epoch":"2026-05-25T05:43:27.187104Z","epoch_age_seconds":64516,"freshness":"FRESH","line1":"1 65263U 25180E   26145.23850911  .00011618  00000+0  60193-3 0  9993","line2":"2 65263  97.4777 272.6255 0001582  91.4903 268.6511 15.16346094 42246","mean_motion":15.16346094,"eccentricity":0.0001582,"inclination_deg":97.4777,"raan_deg":272.6255,"arg_perigee_deg":91.4903,"mean_anomaly_deg":268.6511,"bstar":0.00060193,"rev_number":4224,"period_min":94.965127400526,"perigee_km":515.80416322711,"apogee_km":517.98575133839,"semimajor_km":6895.0319572827,"source":"CELESTRAK","updated_at":"2026-05-25T13:38:05.262854Z"}}}